Retour au catalogue

STARLINK-11376

ActifCommunicationsVLEO
NORAD 61575·PAYLOAD·🇺🇸 United States

Lancé Oct 18, 2024 depuis Cape Canaveral Space Force Station

Loading…

Prochains Passages (prochaines 24 heures)

TLE

FraisSource: CelesTrak SupGP

Époque: Sep 14, 2026, 22:28 UTC

1 61575C 24187B   26257.93659722  .00046075  00000+0  37952-3 0  2578
2 61575  53.1570  83.3036 0001115  72.9133 306.1227 15.69687664    13

Suivez STARLINK-11376 en temps réel avec AllMySat

Download on the App Store